Home   Weather   Aurora   Past weeks

Flag for USA Past Weather in Aurora, Illinois, USA — Yesterday and Last 2 Weeks

Now
46 °F

Overcast.


Feels Like: 38 °F
Forecast: 45 / 58 °F
Wind: 20 mph from West

Location: Dupage Airport

Current Time: Apr 27, 2017 at 12:01:29 pm

Latest Report: Apr 27, 2017 at 10:52 am


Visibility: 10 mi

Pressure: 29.55 "Hg

Humidity: 83%

Dew Point: 41 °F

Location of AuroraLocation

Past Weather in Aurora — Graph

°F

Aurora Temperature Yesterday

Maximum temperature yesterday: 71 °F (at 12:52 pm)
Minimum temperature yesterday: 57 °F (at 11:59 pm)
Average temperature yesterday: 65 °F

High & Low Weather Summary for the Past Weeks

 TemperatureHumidityPressure
High80 °F (Apr 15, 1:52 pm)100% (Apr 14, 9:52 pm)30.40 "Hg (Apr 14, 9:52 pm)
Low34 °F (Apr 23, 4:52 am)21% (Apr 24, 2:52 pm)29.28 "Hg (Apr 27, 4:52 am)
Average58 °F68%29.95 "Hg
* Reported Apr 12 10:52 am — Apr 27 10:52 am, Aurora, Weather by CustomWeather, © 2017

Note: Actual official high and low records may vary slightly from our data, if they occured in-between our weather recording intervals... More about our weather records

Advertising

Aurora Weather History for the Previous 24 Hours

Scroll right to see more
 ConditionsComfort  
Time TempWeatherWind HumidityBarometerVisibility
10:52 am
Thu, Apr 27
46 °FOvercast.20 mph83%29.55 "Hg10 mi
10:35 am45 °FOvercast.20 mph82%29.53 "Hg10 mi
10:00 am45 °FLight rain. Mostly cloudy.23 mph86%29.52 "Hg10 mi
8:52 am45 °FMostly cloudy.17 mph93%29.49 "Hg10 mi
8:29 am45 °FLight rain. Fog.21 mph97%29.47 "Hg4 mi
8:14 am45 °FLight rain. Fog.16 mph100%29.46 "Hg2 mi
7:32 am45 °FLight rain. Fog.17 mph100%29.41 "Hg1 mi
7:07 am46 °FLight rain. Fog.18 mph100%29.37 "Hg3 mi
6:52 am47 °FLight rain. Fog.15 mph100%29.34 "Hg1 mi
6:36 am48 °FLight rain. Fog.21 mph96%29.33 "Hg2 mi
5:52 am51 °FRain. Fog.12 mph100%29.29 "Hg5 mi
5:36 am52 °FLight rain. Fog.10 mph100%29.29 "Hg5 mi
4:52 am58 °FLight rain. Mostly cloudy.18 mph97%29.28 "Hg7 mi
4:31 am58 °FLight rain. Fog.16 mph100%29.30 "Hg4 mi
3:52 am59 °FLight rain. Mostly cloudy.18 mph96%29.29 "Hg9 mi
3:21 am59 °FLight rain. Overcast.12 mph100%29.31 "Hg8 mi
2:52 am59 °FLight rain. Fog.12 mph100%29.32 "Hg5 mi
2:35 am59 °FLight rain. Mostly cloudy.12 mph100%29.34 "Hg10 mi
2:14 am59 °FLight rain. Overcast.13 mph100%29.35 "Hg10 mi
1:52 am59 °FLight rain. Mostly cloudy.13 mph100%29.35 "Hg8 mi
1:09 am59 °FLight rain. Fog.7 mph100%29.38 "Hg4 mi
12:44 am58 °FLight rain. Fog.5 mph100%29.39 "Hg2 mi
12:24 am57 °FRain. Fog.No wind100%29.40 "Hg3 mi
11:59 pm
Wed, Apr 26
57 °FRain. Fog.3 mph100%29.41 "Hg2 mi
10:52 pm58 °FLight rain. Fog.5 mph97%29.44 "Hg5 mi
9:52 pm59 °FLight rain. Overcast.3 mph93%29.46 "Hg7 mi
8:52 pm61 °FOvercast.3 mph87%29.45 "Hg10 mi
7:52 pm61 °FOvercast.5 mph87%29.45 "Hg10 mi
6:52 pm64 °FMostly cloudy.15 mph84%29.48 "Hg8 mi
5:52 pm66 °FPartly sunny.12 mph81%29.47 "Hg8 mi
4:52 pm69 °FOvercast.13 mph70%29.47 "Hg9 mi
3:52 pm69 °FMostly cloudy.12 mph68%29.47 "Hg10 mi
2:52 pm71 °FMostly cloudy.14 mph63%29.46 "Hg10 mi
1:52 pm71 °FMostly cloudy.18 mph63%29.46 "Hg10 mi
12:52 pm71 °FBroken clouds.15 mph68%29.45 "Hg10 mi
Weather by CustomWeather, © 2017

See weather overviewHow to use our weather pages